Weather in Telengit-Sortogoy

Russia / Altai Republic     50°00′44″N   88°44′52″E
temp.,
°C
wind,
m/s
gust,
m/s
humid.,
%
clouds,
%
prec.,
mm/h
press.,
hPa
HPBL,
m
13 june, sun
sun1301:00+4nnw228315 1.4 101227
04:00+2nne228513 0.0 101241
07:00+4nw12753 0.3 1011172
10:00+8w45338 0.3 10102302
13:00+11wnw442963 0.4 10082821
16:00+9n664839 0.5 10091337
19:00+8nnw345138 0.6 10111184
22:00+5nnw236878 0.1 101463
14 june, mon
mon1401:00+3nnw227754 0.1 101674
04:00+2nnw228161 0.0 101638
07:00+3wnw127028 0.0 1017448
10:00+7w125067 0.0 10151434
13:00+11nnw123898 0.1 10122222
16:00+12n543872 0.0 10122166
19:00+10n554511 0.0 10131333
22:00+7nnw326113 0.0 101535
15 june, tue
tue1501:00+5n22715 0.0 101527
04:00+3n227913 0.0 101526
07:00+5nnw12673 0.0 1016325
10:00+9wnw12447 0.0 10141549
13:00+13nnw233243 0.0 10122332
16:00+15n342867 0.0 10112693
19:00+13n45386 0.0 10121321
22:00+9n33595 0.0 101538
16 june, wed
wed1601:00+7n22675 0.0 101615
04:00+5nne11720 0.0 101611
07:00+8n006180 0.0 1017215
10:00+12sw11464 0.0 10161117
13:00+16sw22322 0.0 10131811
16:00+18ssw22262 0.0 10112300
19:00+18e12255 0.0 10102071
22:00+13n22392 0.0 101315
17 june, thu
thu1701:00+10wnw1146100 0.0 101411
04:00+8n01576 0.0 101410
07:00+12e00475 0.0 1015120
10:00+16s113515 0.0 1012925
13:00+20wnw13254 0.0 10102059
16:00+19s7531100 0.0 10081856
19:00+8nnw2379100 4.3 1016135
22:00+9nne117468 1.1 101696